Regional Weather Roundup
Issued by NWS

Home | Current Version | Previous Version | Text Only | Print | Product List | Glossary Off
Versions: 1 2 3 4 5 6 7 8 9 10 11 12 13 14 15 16 17 18 19 20 21 22 23 24 25 26 27 28 29 30 31 32 33 34 35 36 37 38 39 40 41 42 43 44 45 46 47 48 49 50

000
ASUS43 KDMX 282207
RWRIA

WEATHER ROUNDUP FOR IOWA
NATIONAL WEATHER SERVICE DES MOINES IA
500 PM CDT SUN JUN 28 2015

NOTE: "FAIR" INDICATES FEW OR NO CLOUDS BELOW 12,000 FEET WITH NO
SIGNIFICANT WEATHER AND/OR OBSTRUCTIONS TO VISIBILITY.

* - THESE STATIONS ARE NOT NWS STATIONS...THUS NOT UNDER NWS
QUALITY CONTROL.  THEY ALSO DO NOT REPORT WEATHER SUCH
AS PRECIPITATION OR FOG.

IAZ001>003-012>014-020>022-031>034-043>046-282300-
   NORTHWEST IOWA

CITY           SKY/WX    TMP DP  RH WIND       PRES   REMARKS
CARROLL *      MOSUNNY   82  64  54 NW18G25   29.81S HX  84
CHEROKEE *     SUNNY     79  59  50 N17G24    29.84F HX  80
DENISON *      SUNNY     81  61  50 N17G25    29.81S HX  81
LE MARS *      SUNNY     82  59  44 N12G26    29.87S HX  82
ORANGE CITY *  SUNNY     81  57  44 N14       29.87S HX  81
SHELDON *      MOSUNNY   82  59  44 N16G22    29.86S HX  82
SIOUX CITY     MOSUNNY   87  56  34 NW21G28   29.85S HX  85
SPENCER        MOSUNNY   82  63  52 N14G22    29.84F HX  83
STORM LAKE *   SUNNY     79  63  57 N18G25    29.85S HX  80
$$

IAZ055>058-069>071-079>083-090>094-282300-
   SOUTHWEST IOWA

CITY           SKY/WX    TMP DP  RH WIND       PRES   REMARKS
ATLANTIC *     MOSUNNY   82  61  47 NW21G29   29.82S HX  83
AUDUBON *      SUNNY     82  57  42 N16G25    29.83S HX  82
CLARINDA *     SUNNY     86  61  42 NW15G23   29.83S HX  86
COUNCIL BLFS * SUNNY     84  57  39 NW16G23   29.84F HX  83
CRESTON *      MOSUNNY   84  59  42 NW16G25   29.80S HX  84
HARLAN  *      SUNNY     84  61  45 NW23G30   29.86S HX  84
LAMONI         SUNNY     85  61  44 NW14G26   29.79S HX  85
RED OAK *      MOSUNNY   86  59  39 NW12G21   29.83S HX  85
SHENANDOAH *   MOSUNNY   86  59  39 NW12G20   29.83S HX  85
$$

IAZ047>049-059>061-072>074-084-282300-
   CENTRAL IOWA

CITY           SKY/WX    TMP DP  RH WIND       PRES   REMARKS
AMES           MOSUNNY   82  65  56 NW18G25   29.75F HX  84
ANKENY *       MOSUNNY   82  66  57 NW14G24   29.74F HX  85
CHARITON *     MOSUNNY   81  68  65 NW10      29.76S HX  83
DES MOINES     MOSUNNY   84  63  49 N16G25    29.75S HX  85
GRINNELL*      SUNNY     79  66  65 NW6       29.76S HX  81
KNOXVILLE *    MOSUNNY   79  66  65 N9G15     29.73F HX  81
MARSHALLTOWN   MOSUNNY   80  66  62 CALM      29.74F HX  82
PELLA *        MOSUNNY   81  72  74 N6        29.75F HX  84
PERRY *          N/A     82  64  54 NW21      29.79S HX  84
$$

IAZ004>006-015-016-023>025-035-036-282300-
   NORTH CENTRAL IOWA

CITY           SKY/WX    TMP DP  RH WIND       PRES   REMARKS
ALGONA *       MOSUNNY   79  64  61 N14G22    29.81S HX  81
CLARION *      PTSUNNY   79  66  65 NW9G15    29.78S HX  81
ESTHERVILLE    MOSUNNY   78  63  59 N13       29.83F HX  80
FORT DODGE *   SUNNY     79  64  61 NW9       29.80S HX  81
MASON CITY     MOSUNNY   80  64  58 N9        29.80S HX  82
FOREST CITY *  MOSUNNY   77  63  61 N12       29.81R
IOWA FALLS *   PTSUNNY   81  64  57 N7        29.78S HX  82
$$

IAZ007>011-017>019-026>030-037>042-050>054-066-282300-
   NORTHEAST IOWA

CITY           SKY/WX    TMP DP  RH WIND       PRES   REMARKS
CEDAR RAPIDS   PTSUNNY   71  69  93 E8        29.77F
CHARLES CITY * MOSUNNY   75  68  78 CALM      29.79S
CLINTON *      CLOUDY    66  61  82 E6        29.83F
DECORAH *        N/A    N/A N/A N/A MISG        N/A
DUBUQUE        CLOUDY    65  62  90 S10       29.81F
MONTICELLO *   LGT RAIN  66  66 100 NE3       29.81S
OELWEIN *      MOSUNNY   73  64  73 SE12      29.79F
WATERLOO       MOSUNNY   75  68  78 SE9       29.76F
$$

IAZ064-065-067-068-078-282300-
   EAST CENTRAL IOWA

CITY           SKY/WX    TMP DP  RH WIND       PRES   REMARKS
DAVENPORT      LGT RAIN  66  63  90 SE7       29.81F FOG
IOWA CITY      HVY RAIN  68  67  96 NE9       29.78F VSB 3/4
MT. PLEASANT * MOSUNNY   77  64  65 S10       29.76F
MUSCATINE *    CLOUDY    72  66  83 E6        29.77F
QUAD CITIES    LGT RAIN  67  64  90 E10       29.79F FOG
$$

IAZ062-063-075>077-085>089-095>099-282300-
   SOUTHEAST IOWA

CITY           SKY/WX    TMP DP  RH WIND       PRES   REMARKS
BURLINGTON     PTSUNNY   73  68  84 S13       29.76F
FAIRFIELD *    PTSUNNY   73  68  83 SE6       29.75F
FORT MADISON * MOSUNNY   73  68  83 S12       29.76F
KEOKUK *       PTSUNNY   75  68  78 SE12      29.75F
OSKALOOSA *    PTSUNNY   73  64  73 NE17G29   29.76R
OTTUMWA        MOSUNNY   82  69  64 N3        29.72F THUNDER HX  85
WASHINGTON *   CLOUDY    73  68  83 S7        29.77F
$$

ABBREVIATIONS USED IN REMARKS
   TC - TEMPERATURES IN CELSIUS
  WCI - WIND CHILL INDEX
   HX - HEAT INDEX
  VSB - VISIBILITY
$$



USA.gov is the U.S. government's official web portal to all federal, state and local government web resources and services.